| time (UTC) | temp F | wind direction | speed MPH | gust MPH | rain 1hr in | rain 24hr in | rain mn in | humidity % | barometer mb |
| 20260505185459 | 39 | 1 | 2.0 | 6.0 | 0.03 | 0.73 | 0.69 | 89 | 1010.9 |
| 20260505183459 | 40 | 0 | 0.0 | 0.0 | 0.01 | 0.71 | 0.67 | 88 | 1010.9 |
| 20260505182459 | 39 | 0 | 0.0 | 0.0 | 0.01 | 0.71 | 0.67 | 88 | 1011.0 |
| 20260505180959 | 39 | 0 | 0.0 | 0.0 | 0.01 | 0.71 | 0.67 | 88 | 1011.1 |
| 20260505174459 | 39 | 0 | 0.0 | 0.0 | 0.02 | 0.70 | 0.66 | 89 | 1010.5 |
| 20260505174000 | 39 | 0 | 0.0 | 0.0 | 0.03 | 0.70 | 0.66 | 89 | 1010.5 |
| 20260505172459 | 39 | 6 | 0.0 | 0.0 | 0.05 | 0.70 | 0.66 | 90 | 1011.2 |
| 20260505171959 | 38 | 10 | 0.0 | 0.0 | 0.06 | 0.70 | 0.66 | 90 | 1011.1 |
| 20260505171459 | 38 | 10 | 0.0 | 0.0 | 0.06 | 0.70 | 0.66 | 90 | 1010.9 |
| 20260505170459 | 38 | 9 | 0.0 | 0.0 | 0.08 | 0.70 | 0.66 | 90 | 1010.9 |
| 20260505163959 | 37 | 9 | 0.0 | 0.0 | 0.09 | 0.67 | 0.63 | 91 | 1011.3 |
| 20260505162959 | 36 | 9 | 0.0 | 0.0 | 0.09 | 0.66 | 0.62 | 91 | 1011.3 |
| 20260505162459 | 36 | 9 | 0.0 | 0.0 | 0.09 | 0.65 | 0.61 | 91 | 1011.3 |
| 20260505161959 | 36 | 9 | 0.0 | 0.0 | 0.09 | 0.64 | 0.60 | 91 | 1011.4 |
| 20260505160500 | 36 | 9 | 0.0 | 0.0 | 0.10 | 0.62 | 0.58 | 92 | 1011.7 |
| 20260505152959 | 35 | 9 | 0.0 | 0.0 | 0.08 | 0.57 | 0.53 | 92 | 1011.6 |
| 20260505152459 | 35 | 9 | 0.0 | 0.0 | 0.07 | 0.56 | 0.52 | 92 | 1011.7 |
| 20260505151000 | 35 | 10 | 0.0 | 0.0 | 0.04 | 0.53 | 0.49 | 92 | 1011.6 |
| 20260505150459 | 35 | 10 | 0.0 | 0.0 | 0.04 | 0.52 | 0.48 | 92 | 1011.7 |
| 20260505140500 | 34 | 10 | 0.0 | 0.0 | 0.00 | 0.48 | 0.44 | 92 | 1011.9 |
| 20260505122000 | 37 | 16 | 0.0 | 0.0 | 0.02 | 0.38 | 0.34 | 91 | 1009.7 |
| 20260505121459 | 37 | 16 | 0.0 | 0.0 | 0.02 | 0.38 | 0.34 | 91 | 1009.8 |
| 20260505121000 | 37 | 16 | 0.0 | 0.0 | 0.01 | 0.37 | 0.33 | 91 | 1009.8 |
| 20260505120000 | 37 | 16 | 0.0 | 0.0 | 0.01 | 0.36 | 0.32 | 91 | 1009.0 |
| 20260505115500 | 37 | 17 | 1.0 | 3.0 | 0.01 | 0.36 | 0.32 | 91 | 1009.0 |
| 20260505115000 | 37 | 0 | 0.0 | 3.0 | 0.01 | 0.36 | 0.32 | 91 | 1008.9 |
| 20260505114459 | 37 | 0 | 0.0 | 3.0 | 0.01 | 0.36 | 0.32 | 91 | 1008.9 |
| 20260505114000 | 37 | 353 | 1.0 | 3.0 | 0.02 | 0.36 | 0.32 | 91 | 1008.9 |
| 20260505113500 | 37 | 356 | 2.0 | 5.0 | 0.02 | 0.36 | 0.32 | 91 | 1008.5 |
| 20260505113000 | 37 | 0 | 0.0 | 2.0 | 0.02 | 0.36 | 0.32 | 91 | 1008.4 |
| 20260505112459 | 37 | 0 | 1.0 | 5.0 | 0.03 | 0.36 | 0.32 | 91 | 1008.3 |
| 20260505112000 | 38 | 348 | 1.0 | 6.0 | 0.04 | 0.36 | 0.32 | 91 | 1008.3 |
| 20260505111459 | 38 | 0 | 2.0 | 6.0 | 0.04 | 0.36 | 0.32 | 90 | 1008.2 |
| 20260505111000 | 38 | 355 | 1.0 | 3.0 | 0.05 | 0.36 | 0.32 | 91 | 1008.1 |
| 20260505110500 | 38 | 355 | 0.0 | 5.0 | 0.05 | 0.36 | 0.32 | 91 | 1008.0 |
| 20260505095959 | 39 | 355 | 3.0 | 9.0 | 0.04 | 0.31 | 0.27 | 88 | 1006.4 |
| 20260505094959 | 40 | 3 | 6.0 | 13.0 | 0.04 | 0.30 | 0.26 | 88 | 1006.2 |
| 20260505094500 | 41 | 355 | 3.0 | 7.0 | 0.04 | 0.30 | 0.26 | 88 | 1006.0 |
| 20260505094000 | 41 | 5 | 3.0 | 6.0 | 0.05 | 0.30 | 0.26 | 89 | 1006.0 |
| 20260505093000 | 42 | 354 | 4.0 | 9.0 | 0.05 | 0.30 | 0.26 | 88 | 1006.0 |
| 20260505092000 | 43 | 357 | 4.0 | 10.0 | 0.03 | 0.28 | 0.24 | 89 | 1005.6 |
| 20260505091500 | 43 | 31 | 1.0 | 12.0 | 0.03 | 0.28 | 0.24 | 89 | 1005.5 |
| 20260505090500 | 44 | 5 | 1.0 | 6.0 | 0.03 | 0.28 | 0.24 | 89 | 1005.3 |
| 20260505085459 | 44 | 13 | 1.0 | 3.0 | 0.03 | 0.27 | 0.23 | 87 | 1005.0 |
| 20260505083500 | 44 | 13 | 0.0 | 3.0 | 0.03 | 0.25 | 0.21 | 87 | 1004.7 |
| 20260505081500 | 44 | 12 | 0.0 | 0.0 | 0.07 | 0.25 | 0.21 | 89 | 1004.6 |
| 20260505081000 | 44 | 12 | 0.0 | 0.0 | 0.09 | 0.25 | 0.21 | 89 | 1004.4 |
| 20260505080500 | 44 | 12 | 0.0 | 0.0 | 0.09 | 0.25 | 0.21 | 89 | 1004.4 |
| 20260505075459 | 44 | 12 | 0.0 | 0.0 | 0.10 | 0.24 | 0.20 | 89 | 1004.5 |
| 20260505074459 | 44 | 12 | 0.0 | 1.0 | 0.10 | 0.24 | 0.20 | 89 | 1004.5 |
| 20260505073001 | 45 | 13 | 0.0 | 0.0 | 0.09 | 0.21 | 0.17 | 90 | 1004.5 |
| 20260505072500 | 45 | 13 | 0.0 | 2.0 | 0.08 | 0.19 | 0.15 | 90 | 1004.5 |
| 20260505071500 | 45 | 13 | 1.0 | 3.0 | 0.09 | 0.18 | 0.14 | 89 | 1004.4 |
| 20260505065500 | 45 | 351 | 0.0 | 7.0 | 0.06 | 0.14 | 0.10 | 87 | 1003.3 |
| 20260505064000 | 46 | 2 | 3.0 | 10.0 | 0.05 | 0.13 | 0.09 | 85 | 1003.0 |
| 20260505062500 | 48 | 351 | 2.0 | 7.0 | 0.03 | 0.11 | 0.07 | 82 | 1002.3 |
| 20260505061000 | 50 | 89 | 0.0 | 0.0 | 0.01 | 0.05 | 0.01 | 83 | 1001.5 |
| 20260505054000 | 50 | 89 | 0.0 | 0.0 | 0.00 | 0.04 | 0.04 | 80 | 1000.7 |
| 20260505053000 | 50 | 89 | 0.0 | 0.0 | 0.00 | 0.04 | 0.04 | 80 | 1000.4 |
| 20260505052500 | 50 | 89 | 0.0 | 0.0 | 0.00 | 0.04 | 0.04 | 80 | 1000.4 |
| 20260505052000 | 49 | 89 | 1.0 | 3.0 | 0.00 | 0.04 | 0.04 | 81 | 1000.3 |
| 20260505051500 | 49 | 78 | 0.0 | 0.0 | 0.00 | 0.04 | 0.04 | 82 | 1000.4 |
| 20260505051000 | 50 | 78 | 0.0 | 0.0 | 0.00 | 0.04 | 0.04 | 82 | 1000.4 |
| 20260505041500 | 50 | 78 | 0.0 | 0.0 | 0.00 | 0.04 | 0.04 | 82 | 1000.6 |
| 20260505031501 | 51 | 0 | 0.0 | 0.0 | 0.00 | 0.04 | 0.04 | 84 | 1001.1 |
| 20260505030501 | 52 | 0 | 0.0 | 0.0 | 0.00 | 0.04 | 0.04 | 85 | 1001.0 |
| 20260505030000 | 52 | 0 | 0.0 | 0.0 | 0.00 | 0.04 | 0.04 | 84 | 1002.3 |
| 20260505025001 | 52 | 0 | 0.0 | 0.0 | 0.00 | 0.04 | 0.04 | 82 | 1001.9 |
| 20260505024001 | 52 | 0 | 0.0 | 0.0 | 0.00 | 0.04 | 0.04 | 82 | 1001.9 |
| 20260505023500 | 52 | 0 | 0.0 | 0.0 | 0.00 | 0.04 | 0.04 | 81 | 1001.8 |
| 20260505021500 | 53 | 0 | 0.0 | 0.0 | 0.01 | 0.04 | 0.04 | 82 | 1001.5 |
| 20260505015500 | 53 | 0 | 0.0 | 0.0 | 0.02 | 0.04 | 0.04 | 81 | 1002.8 |
| 20260505014001 | 54 | 0 | 0.0 | 0.0 | 0.02 | 0.04 | 0.04 | 79 | 1002.5 |
| 20260505012500 | 55 | 0 | 0.0 | 0.0 | 0.02 | 0.04 | 0.04 | 77 | 1002.6 |
| 20260505011000 | 55 | 0 | 0.0 | 0.0 | 0.01 | 0.03 | 0.03 | 74 | 1002.0 |
| 20260505005500 | 56 | 0 | 0.0 | 0.0 | 0.01 | 0.02 | 0.02 | 67 | 1003.0 |
| 20260505005001 | 57 | 2 | 2.0 | 6.0 | 0.02 | 0.02 | 0.02 | 63 | 1002.7 |
| 20260505004001 | 57 | 51 | 0.0 | 3.0 | 0.02 | 0.02 | 0.02 | 63 | 1002.6 |
| 20260505003500 | 57 | 87 | 0.0 | 1.0 | 0.02 | 0.02 | 0.02 | 65 | 1002.6 |
| 20260505002500 | 58 | 87 | 0.0 | 0.0 | 0.02 | 0.02 | 0.02 | 66 | 1002.5 |
| 20260505000501 | 59 | 87 | 0.0 | 6.0 | 0.02 | 0.02 | 0.02 | 48 | 1002.1 |
| 20260504235001 | 63 | 281 | 0.0 | 3.0 | 0.00 | 0.00 | 0.00 | 53 | 1002.2 |
| 20260504233501 | 64 | 311 | 0.0 | 3.0 | 0.00 | 0.00 | 0.00 | 35 | 1001.4 |
| 20260504232001 | 65 | 333 | 0.0 | 1.0 | 0.00 | 0.00 | 0.00 | 35 | 1001.0 |
| 20260504231500 | 65 | 340 | 0.0 | 3.0 | 0.00 | 0.00 | 0.00 | 35 | 1000.8 |
| 20260504224501 | 66 | 346 | 1.0 | 5.0 | 0.00 | 0.00 | 0.00 | 33 | 999.9 |
| 20260504223501 | 66 | 3 | 2.0 | 7.0 | 0.00 | 0.00 | 0.00 | 33 | 1000.0 |
| 20260504223001 | 66 | 358 | 3.0 | 7.0 | 0.00 | 0.00 | 0.00 | 34 | 1000.0 |
| 20260504222001 | 66 | 346 | 0.0 | 5.0 | 0.00 | 0.00 | 0.00 | 34 | 999.9 |
| 20260504221001 | 66 | 334 | 2.0 | 6.0 | 0.00 | 0.00 | 0.00 | 34 | 1000.0 |
| 20260504212001 | 66 | 332 | 2.0 | 12.0 | 0.00 | 0.00 | 0.00 | 36 | 1000.7 |
| 20260504211501 | 66 | 335 | 3.0 | 18.0 | 0.00 | 0.00 | 0.00 | 35 | 1000.7 |
| 20260504211001 | 67 | 349 | 4.0 | 12.0 | 0.00 | 0.00 | 0.00 | 33 | 1000.7 |
| 20260504210501 | 67 | 359 | 3.0 | 12.0 | 0.00 | 0.00 | 0.00 | 32 | 1000.6 |
| 20260504210001 | 67 | 354 | 5.0 | 12.0 | 0.00 | 0.00 | 0.00 | 32 | 1000.1 |
| 20260504205001 | 65 | 3 | 4.0 | 9.0 | 0.00 | 0.00 | 0.00 | 33 | 1000.3 |
| 20260504204501 | 65 | 358 | 5.0 | 12.0 | 0.00 | 0.00 | 0.00 | 33 | 1000.3 |
| 20260504204001 | 65 | 3 | 5.0 | 12.0 | 0.00 | 0.00 | 0.00 | 32 | 1000.4 |
| 20260504203501 | 65 | 3 | 6.0 | 13.0 | 0.00 | 0.00 | 0.00 | 33 | 1000.4 |
| 20260504201501 | 66 | 2 | 9.0 | 16.0 | 0.00 | 0.00 | 0.00 | 31 | 999.9 |
| 20260504201001 | 66 | 349 | 7.0 | 16.0 | 0.00 | 0.00 | 0.00 | 31 | 1000.0 |
| 20260504200501 | 66 | 341 | 5.0 | 17.0 | 0.00 | 0.00 | 0.00 | 30 | 1000.4 |
| 20260504193001 | 69 | 1 | 5.0 | 15.0 | 0.00 | 0.00 | 0.00 | 27 | 998.8 |
| 20260504192500 | 69 | 3 | 5.0 | 10.0 | 0.00 | 0.00 | 0.00 | 26 | 998.6 |
| 20260504190501 | 72 | 0 | 0.0 | 3.0 | 0.00 | 0.00 | 0.00 | 21 | 997.9 |
| 20260504190001 | 72 | 309 | 0.0 | 3.0 | 0.00 | 0.00 | 0.00 | 24 | 997.2 |